Location: Sungai Anya
(2.6167°N, 114.0500°E)
Time: 18:08:54
(UTC+00:00)

NOSS 3-1 (A) - Pass Details

Date: 19 October 2021
Orbit: 721 x 1491 km, 63.4° (Epoch: 22 November)

Event Time Altitude Azimuth Distance (km) Brightness Sun altitude
Rises 10:29:20 0° 204° (SSW) 3,210 6.7 -5.5°
Reaches altitude 10° 10:31:45 10° 204° (SSW) 2,239 5.9 -6.1°
Maximum altitude 10:36:45 88° 289° (WNW) 723 2.9 -7.3°
Drops below altitude 10° 10:41:45 10° 23° (NNE) 2,238 5.1 -8.6°
Sets 10:44:10 0° 23° (NNE) 3,208 5.9 -9.2°
